Погода в Слуцке

Погода в Слуцке : погода сейчас, прогноз погоды и архив. Всё, что Вы хотите узнать о погоде в Слуцке!

Хотите узнать прогноз погоды в Слуцке? Тогда Вам сюда: Погода в Слуцке

Поиск расширенной информации на нашем сайте:

Другие новости

Новости СМИ2

Главная страница сайта

Новости сайта

02.10.2013

Напоминаем, что на нашем новом сайте вы можете получить высокодетализированные прогнозы погоды по пунктам России, СНГ и мира (включающие важные для авиации метеовеличины, такие как направление и скорость ветра, видимость, явления погоды, количество и форма облачности, нижняя и верхняя граница облачности), а также ознакомиться с разнообразными материалами по авиационной метеорологии и подборкой полезных ссылок на эту тему.

Сайт Метеоцентр.Азия посвящён разработке технологий оптимизации авиаметеорологического обслуживания, включая проектирование и перспективное создание нескольких автоматизированных авиаметеорологических систем:
- система выпуска высокодетальных прогностических карт явлений погоды для нижнего воздушного пространства по России и ближнему зарубежью;
- система верификации прогнозов TAF (выпускаемых синоптиками официальных АМСГ РФ и ближнего зарубежья) и AUTOTAF (выпускаемых сайтом Метеоцентр.Азия) - выявление ошибок, онлайн-сопоставление с фактической погодой METAR, автоматическое внесение коррективов в прогнозы при резком отклонении фактической погоды от прогноза, подсчёт оправдываемости прогнозов по элементам и в целом;
- система обработки, анализа и отображения авиаметеорологической информации для применения провайдерами метеорологической информации.

Рекомендуем: Купить броненакладки апекс коллекция престиж купить.

Погода в Слуцке - сегодня

Время (UTC), дата Ветер
(°,м/с) 
Видим.   Явления Облачность Т
(°С)
Тd
(°С)
f(%) Тe
(°С)
Pmin
(гПа)
dP
(гПа)
Po
(мм)
O2
(г/м3)
Тmin Tmax R s Состояние
почвы
09 30.08.15 280 (З) 19000 м    4/0 средняя, верхняя 
[Ac cast|Ci fib]
+20.9 +9.5 48 +21  1024.7  -0.7  754  281           
12 30.08.15 190 (Ю) 20000 м    8/6 600 м верхняя 
[Cu med, cong|Ci]
+23.8 +10.4 43 +25  1023.2  -1.3  753  277           
15 30.08.15 300 (СЗ) 17000 м    4/1 600 м верхняя 
[Sc diur, vesp|Ci sp]
+24.2 +11.2 44 +27  1020.9  -2.2  752  276           
18 30.08.15 тихо ()   20000 м    3/1 1000 м верхняя 
[Sc diur, vesp|Ci fib]
+19.9 +14.2 70 +27  1020.4  -0.7  751  279    +24.9       
21 30.08.15 тихо ()   15000 м    6/0 средняя 
[Ac trans]
+15.5 +11.8 79 +19  1020.1  -0.7  751  284           
00 31.08.15 080 (В) 14000 м    9/0 средняя 
[Ac und]
+13.9 +10.5 80 +17  1019.8  -0.3  750  286           
03 31.08.15 150 (ЮВ) 11000 м    9/9 500 м 
[Sc]
+16.2 +11.5 74 +21  1018.6  -1.1  750  283           
06 31.08.15 тихо ()   7000 м  мгла  9/1 600 м средняя 
[Sc|Ac trans]
+17.5 +11.7 69 +21  1018.7  0.3  750  282  +13.4         
09 31.08.15 150 (ЮВ) 9000 м  мгла  9/0 средняя 
[Ac trans]
+24.8 +10.9 42 +27  1017.9  -0.5  749  275           
12 31.08.15 250 (З) 10 км    9/1 600 м средняя, верхняя 
[Sc|Ac trans|Ci sp]
+26.9 +10.4 36 +29  1017  -0.7  749  273           
15 31.08.15 070 (В) 13000 м    9/0 средняя, верхняя 
[Ac trans|Cc]
+25.9 +11.3 40 +29  1016.1  -0.9  748  273           
18 31.08.15 080 (В) 10 км    5/3 600 м средняя 
[Sc|Ac trans]
+21 +13.1 61 +27  1016.2  -0.2  748  277    +27.9       
21 31.08.15 080 (В) 13000 м    3/0 верхняя 
[Ci sp]
+17.6 +11.5 67 +22  1015.8  -0.6  748  281           
00 01.09.15 080 (В) 11000 м    ясно 
+14.9 +10.7 76 +18  1015.6  -0.4  747  284           
03 01.09.15 090 (В) 11000 м    4/0 верхняя 
[Ci fib]
+12.8 +9 78 +13  1014.6  -1.2  746  286           
06 01.09.15 140 (ЮВ) 10 км    3/0 верхняя 
[Ci fib]
+18.2 +12.6 70 +24  1013.3  -0.9  746  279  +12.7         
09 01.09.15 110 (В) 10 км    ясно 
+27.3 +11 36 +30  1010.7  -2  744  271           
12 01.09.15 140 (ЮВ) 10 км    3/3 600 м 
[Sc]
+32.2 +14 33 +39  1008  -2.3  743  265           
15 01.09.15 180 (Ю) 10 км    ясно 
+32.7 +15.6 36 +43  1006.2  -1.8  741  263           
18 01.09.15 080 (В) 5000 м  мгла  9/9 600 м кучево-дожд. 
[Cb cap]
+27 +19.1 62 +44  1005.8  -0.6  741  267    +33.7       
21 01.09.15 160 (Ю) 5000 м  мгла  8/0 верхняя 
[Ci sp]
+24 +13.6 52 +31  1005.1  -0.9  740  271           
00 02.09.15 200 (Ю) 5000 м  мгла  8/0 верхняя 
[Ci sp]
+21 +11.9 56 +25  1005  -0.3  740  275           
03 02.09.15 240 (ЮЗ) 8000 м  мгла  8/0 верхняя 
[Ci sp]
+17 +12.1 73 +22  1005.3  740  278           
06 02.09.15 020 (С) 6000 м  мгла  10/0 верхняя 
[Cs]
+19.3 +13.5 69 +28  1005.3  0.3  740  276  +15.8         
09 02.09.15 270 (З) 6000 м  мгла  ясно 
+29.6 +15.5 42 +39  1005.1  0.4  740  266           
Время (UTC), дата Ветер
(°,м/с) 
Видим.   Явления Облачность Т
(°С)
Тd
(°С)
f(%) Тe
(°С)
Pmin
(гПа)
dP
(гПа)
Po
(мм)
O2
(г/м3)
Тmin Tmax R s Состояние
почвы

Для получения пояснительной информации подведите курсор к названию столбца.

ПОГОДА в Слуцке - архив

Всё, что Вы хотите узнать о погоде в Слуцке - удобно и подробно!

Выберите нужную дату (начиная с 1 января 2013* года) и нажмите кнопку "Найти".
Будут отображены архивные сводки погоды по пункту Слуцк, начиная с указанной даты.


Отображать данные в формате CSV (для использования в таблицах Excel)


Внимание! Наш архив погоды предназначен исключительно для личного некоммерческого использования в познавательных целях. Если Вам необходимы официальные справки о состоянии погоды (для производственных, юридических, коммерческих и т.п. целей), обращайтесь в органы Росгидромета.

*Примечание: данная дата относится к архиву по метеостанциям СССР (Россия, СНГ, Балтия).
Архив по метеостанциям Зарубежной Европы и Азии (кроме Китая) хранится 10 дней, по другим регионам земного шара (Китай, Африка, Америка, Австралия, Океания) - 1 день.

Слуцк - район местоположения метеостанции


Название, широта, долгота, высота метеостанции:
Слуцк 53°ш. 27.6°д. 162 м над ур. моря [Беларусь]

Дополнительная информация

В oтличие oт бoльшинства пoгoдных сайтoв мы публикуем пoдрoбную метеoинфoрмацию в детальнoм прoфессиoнальнoм фoрмате.

Характеристики температуры и влажнoсти вoздуха измеряются на высoте 2 м в тени вдали oт зданий и деревьев.
Скoрoсть ветра измеряется на высoте 10 м (на урoвне рoста челoвека скoрoсть ветра ниже в 1.5-2 раза). Если метеoстанция нахoдится в гoрoде или в лесу, тo скoрoсть ветра занижена на 2-4 м/с пo сравнению с oткрытым местoм. Скoрoсть ветра над акватoриями крупных рек и oзёр, а также на вершинах хoлмoв на 2-5 м/с выше, чем в oбычных услoвиях.
Атмoсфернoе давление в разных тoчках местнoсти мoжет значительнo oтличаться oт давления на метеoстанции, в зависимoсти oт услoвий рельефа (при пoдъёме на 10 м давление пoнижается примернo на 1 мм рт.ст.).